Airfield :
LOGIN :

Register | Disclaimer

   EN    FR    IT 

 










Legend :    VFR   Marginal VFR   IFR   Intensive IFR   Very Intensive IFR
Visi :
Ceiling :
>= 8 km
>= 3000ft
5 to 8 km
1000 to 3000 ft
1500m to 5 km
500 to 1000 ft
800 to 1500m
200 to 500 ft
< 800m
< 200 ft
Symbols :   Thunderstorms  Fog  Heavy snow  Heavy precipitations  Wind > 20 kt
SIGMETs :     Misc.  Thunderstorms  Icing  Turbulence  Mountain Waves  Volcanic Ashes







- Airport Elevation : 12 ft
- IATA code : NCE
- Download approach charts


LFMN - Nice

CURRENT METAR :
  • 181800Z VRB02KT 9999 BKN032 12/06 Q1024 NOSIG

EXPIRED METARs :
  • 181730Z VRB03KT 9999 BKN031 12/06 Q1024 NOSIG
  • 181700Z VRB03KT 9999 BKN031 12/06 Q1023 NOSIG
  • 181630Z 18003KT 130V210 9999 BKN031 13/07 Q1023 NOSIG
  • 181600Z 17003KT 9999 BKN031 13/06 Q1024 NOSIG
  • 181530Z 18003KT 140V210 9999 BKN030 13/06 Q1024 NOSIG

TAF TAF LFMN
Valid from the 18 at 15:00 until the 19 at 21:00 UTC


181400Z 1815/1921 18006KT 9999 FEW026
BECMG 1817/1820 34010KT
PROB30
TEMPO 1900/1907 4000 BR
BECMG 1909/1912 16010KT
BECMG 1917/1920 34010KT
PROB30
TEMPO 1907/1921 BKN013
ATIS : +33 4 93 17 21 16
No reported NOTAMs for that airfield.



MET'MAP, your aeronautical weather chart ! - Copyright ORBIFLY December 2007 - Disclaimer

ORBIFLY MET'MAP TEAM :

Programming & Development : Alexandra Zaïnal
Concept & Development : Baudouin d'Aumeries
Co-Development & Prog : Marc-Olivier Méhu
Technical & hardware support : Manuel Goepfert

Contact : metmap@orbifly.com




SOURCES & CREDITS :

   NOAA